Location: Bonny Doon Airfield
(37.0704°N, 122.1252°W)
Time: 04:29:02
(UTC-08:00)

Envisat - Pass Details

Date: 14 October 2017
Orbit: 764 x 766 km, 98.2° (Epoch: 11 December)

Event Time Altitude Azimuth Distance (km) Brightness Sun altitude
Exits shadow 22:20:40 10° 304° (NW) 2,303 6.0 -45.1°
Drops below altitude 10° 22:20:47 10° 305° (NW) 2,328 6.1 -45.1°
Sets 22:23:58 0° 327° (NNW) 3,239 6.9 -45.7°
